Location: Newark
(48.6461°N, 4.3644°W)
Time: 19:55:41
(UTC+00:00)

S-56A Canister/Altair - Pass Details

Date: 22 January 2020
Orbit: 633 x 2499 km, 38.9° (Epoch: 22 February)

Event Time Altitude Azimuth Distance (km) Brightness Sun altitude
Rises 00:53:31 0° 256° (WSW) 2,972 - -60.8°
Reaches altitude 10° 00:56:15 10° 241° (WSW) 2,011 - -60.7°
Maximum altitude 00:59:40 22° 190° (S) 1,405 - -60.5°
Drops below altitude 10° 01:03:18 10° 139° (SE) 2,143 - -60.4°
Sets 01:06:20 0° 124° (SE) 3,227 - -60.2°
